User: anonymous   Login
Location: Unspecified
(0.0000°N, 0.0000°E)
Time: 03:44:40
(UTC+00:00)
Language:

Transit 2A Rocket - Orbit

View from above orbital plane
View from above orbital plane
View from above satellite
View from above satellite

Ground track
Ground track

The orbit data is extracted from the following two-line orbital elements,

1    47U 60007C   15245.93979949 +.00000074 +00000-0 +41922-4 0  9993
2    47 066.6664 151.8686 0224512 144.5996 217.0252 14.41682849882460
Epoch (UTC): 02 September 2015 22:33:18
Eccentricity: 0.0224512
inclination: 66.6664°
perigee height: 593 km
apogee height: 913 km
right ascension of ascending node: 151.8686°
argument of perigee: 144.5996°
revolutions per day: 14.41682849
mean anomaly at epoch: 217.0252°
orbit number at epoch: 88246

The dashed part of the orbit path shows where the satellite is in the earth's shadow,  

DLR